User: anonymous   Login
Location: Unspecified
(0.0000°N, 0.0000°E)
Time: 06:53:35
(UTC+00:00)
Language:

STARLINK-35576 - Orbit

View from above orbital plane
View from above orbital plane
View from above satellite
View from above satellite

Ground track
Ground track

The orbit is defined by the following mean orbital elements,

1 66137U          26144.97090441 +.00000000 +00000-0 +36795-3 0 00000
2 66137  53.1602  45.0040 0001233 102.9825 257.1314 15.30208008    01
Epoch (UTC): 24 May 2026 23:18:06
Eccentricity: 0.0001233
inclination: 53.1602°
perigee height: 474 km
apogee height: 476 km
right ascension of ascending node: 45.0040°
argument of perigee: 102.9825°
revolutions per day: 15.30208008
mean anomaly at epoch: 257.1314°

The dashed part of the orbit path shows where the satellite is in the earth's shadow,  

DLR